2021-033J (48256 NORAD) Tracking and Keplerian Element Data

This shows tracking and keplerian element data for the satellite.

Feedback or suggestion? Click here.




ElementValue
Catalog48256
Name2021-033J
Epoch Orbit457
Epoch Day147.24418948
Epoch Year2021
RAAN222.5914
Inclination97.3921
Eccentricity0.0010251
Argument of Perigee176.3506
Mean Anonmoly269.3194
Mean Motion15.22080945
Decay Rate2.384E-05
L11 48256U 21033J 21147.24418948 .00002384 00000-0 10710-3 0 9998
L22 48256 97.3921 222.5914 0010251 176.3506 269.3194 15.22080945 4576

Live tracking and technical data element details for 2021-033J (NORAD 48256). 2021-033J can be tracked NOW for your location showing map with azimuth and elevation plus other details from your city location.

Track the satellite on the map from your city or location and see movement details for azimuth, elevation, latitude, longitude, range, height, and movement on the map or in text.







IsCatalogInMostPopularTable: catalog: 48256, numindb: 30
Update: records affected: 1



GetName: 48256 2021-033J

Hit Count: updated at: Wed, 04 Aug 2021 00:03:55 GMT